K4KJQ-13 Weather Reports


Display with metric or nautical units.
time (UTC)temp
F
wind
direction
speed
MPH
gust
MPH
rain 1hr
in
rain 24hr
in
rain mn
in
humidity
%
barometer
mb
20260508225106 72 317 3.0 16.0 0.00 0.00 0.00 100
20260508224607 71 288 6.0 13.0 0.00 0.00 0.00 100
20260508224107 72 302 5.0 19.0 0.00 0.00 0.00 100
20260508223607 72 291 17.0 18.0 0.00 0.00 0.00 100
20260508223107 72 295 9.0 17.0 0.00 0.00 0.00 100
20260508222607 73 286 9.0 14.0 0.00 0.00 0.00 100
20260508222107 72 292 11.0 17.0 0.00 0.00 0.00 100
20260508221607 73 293 4.0 13.0 0.00 0.00 0.00 100
20260508221107 73 317 9.0 11.0 0.00 0.00 0.00 100
20260508220607 72 5 2.0 10.0 0.00 0.00 0.00 100
20260508220107 73 292 5.0 19.0 0.00 0.00 0.00 100
20260508215607 73 306 8.0 15.0 0.00 0.00 0.00 100
20260508215107 72 278 13.0 15.0 0.00 0.00 0.00 100
20260508214607 71 289 13.0 19.0 0.00 0.00 0.00 100
20260508214107 73 267 5.0 18.0 0.00 0.00 0.00 100
20260508213607 73 272 10.0 21.0 0.00 0.00 0.00 100
20260508213107 71 298 9.0 16.0 0.00 0.00 0.00 100
20260508212607 72 274 9.0 20.0 0.00 0.00 0.00 100
20260508212107 72 289 13.0 19.0 0.00 0.00 0.00 100
20260508211607 73 298 9.0 11.0 0.00 0.00 0.00 100
20260508211107 73 295 6.0 14.0 0.00 0.00 0.00 100
20260508210607 72 305 7.0 16.0 0.00 0.00 0.00 100
20260508210107 73 270 11.0 15.0 0.00 0.00 0.00 100
20260508205607 73 282 7.0 12.0 0.00 0.00 0.00 100
20260508205107 73 313 6.0 13.0 0.00 0.00 0.00 100
20260508204607 74 282 7.0 13.0 0.00 0.00 0.00 100
20260508204107 73 315 6.0 17.0 0.00 0.00 0.00 100
20260508203607 74 302 5.0 14.0 0.00 0.00 0.00 100
20260508203107 73 300 9.0 17.0 0.00 0.00 0.00 100
20260508202607 73 282 10.0 13.0 0.00 0.00 0.00 100
20260508202107 73 298 5.0 14.0 0.00 0.00 0.00 100
20260508201607 73 284 8.0 15.0 0.00 0.00 0.00 100
20260508201107 72 295 4.0 17.0 0.00 0.00 0.00 100
20260508200607 73 293 6.0 13.0 0.00 0.00 0.00 100
20260508200107 72 296 4.0 16.0 0.00 0.00 0.00 100
20260508195607 73 312 10.0 14.0 0.00 0.00 0.00 100
20260508195107 71 300 5.0 20.0 0.00 0.00 0.00 100
20260508194607 73 298 13.0 22.0 0.00 0.00 0.00 100
20260508194107 72 275 14.0 16.0 0.00 0.00 0.00 100
20260508193607 73 296 7.0 17.0 0.00 0.00 0.00 100
20260508193107 73 295 3.0 13.0 0.00 0.00 0.00 100
20260508192607 72 309 2.0 16.0 0.00 0.00 0.00 100
20260508192107 70 279 12.0 18.0 0.00 0.00 0.00 100
20260508191607 71 315 11.0 14.0 0.00 0.00 0.00 100
20260508191107 72 302 4.0 16.0 0.00 0.00 0.00 100
20260508190607 72 281 4.0 12.0 0.00 0.00 0.00 100
20260508190107 73 291 6.0 12.0 0.00 0.00 0.00 100
20260508185607 72 303 3.0 16.0 0.00 0.00 0.00 100
20260508185107 72 278 10.0 18.0 0.00 0.00 0.00 100
20260508184607 71 271 7.0 14.0 0.00 0.00 0.00 100
20260508184107 71 306 4.0 14.0 0.00 0.00 0.00 100
20260508183607 71 284 12.0 16.0 0.00 0.00 0.00 100
20260508183107 70 251 9.0 18.0 0.00 0.00 0.00 100
20260508182607 70 285 14.0 20.0 0.00 0.00 0.00 100
20260508182107 69 275 17.0 23.0 0.00 0.00 0.00 100
20260508181607 69 295 6.0 19.0 0.00 0.00 0.00 100
20260508181107 70 278 17.0 18.0 0.00 0.00 0.00 100
20260508180607 70 293 7.0 19.0 0.00 0.00 0.00 100
20260508180107 70 288 7.0 14.0 0.00 0.00 0.00 100
20260508175607 70 282 6.0 15.0 0.00 0.00 0.00 100
20260508175107 69 250 4.0 14.0 0.00 0.00 0.00 100
20260508174607 70 257 11.0 16.0 0.00 0.00 0.00 100
20260508174107 69 292 9.0 11.0 0.00 0.00 0.00 100
20260508173607 69 343 3.0 15.0 0.00 0.00 0.00 100
20260508173107 69 278 12.0 17.0 0.00 0.00 0.00 100
20260508172607 69 316 4.0 13.0 0.00 0.00 0.00 100
20260508172107 70 271 5.0 11.0 0.00 0.00 0.00 100
20260508171607 70 300 3.0 15.0 0.00 0.00 0.00 100
20260508171107 68 262 8.0 14.0 0.00 0.00 0.00 100
20260508170607 69 274 5.0 12.0 0.00 0.00 0.00 100
20260508170107 68 309 2.0 14.0 0.00 0.00 0.00 100
20260508165607 68 299 6.0 14.0 0.00 0.00 0.00 100
20260508165107 69 270 7.0 11.0 0.00 0.00 0.00 100
20260508164607 69 296 4.0 13.0 0.00 0.00 0.00 100
20260508164107 68 288 6.0 15.0 0.00 0.00 0.00 100
20260508163607 69 296 8.0 13.0 0.00 0.00 0.00 100
20260508163107 68 306 4.0 14.0 0.00 0.00 0.00 100
20260508162607 68 286 10.0 13.0 0.00 0.00 0.00 100
20260508162107 68 272 5.0 14.0 0.00 0.00 0.00 100
20260508161607 69 306 6.0 9.0 0.00 0.00 0.00 100
20260508161107 69 312 6.0 10.0 0.00 0.00 0.00 100
20260508160607 67 305 4.0 11.0 0.00 0.00 0.00 100
20260508160108 67 337 4.0 15.0 0.00 0.00 0.00 100
20260508155607 66 309 3.0 12.0 0.00 0.00 0.00 100
20260508155107 66 302 4.0 13.0 0.00 0.00 0.00 100
20260508154607 67 278 6.0 10.0 0.00 0.00 0.00 100
20260508154107 67 275 2.0 12.0 0.00 0.00 0.00 100
20260508153607 67 320 3.0 8.0 0.00 0.00 0.00 100
20260508153107 66 300 3.0 12.0 0.00 0.00 0.00 100
20260508152607 66 319 5.0 14.0 0.00 0.00 0.00 100
20260508152107 66 307 8.0 11.0 0.00 0.00 0.00 100
20260508151607 65 285 9.0 9.0 0.00 0.00 0.00 100
20260508151107 65 309 5.0 10.0 0.00 0.00 0.00 100
20260508150607 65 292 6.0 14.0 0.00 0.00 0.00 100
20260508150107 65 284 13.0 14.0 0.00 0.00 0.00 100
20260508145607 65 293 7.0 10.0 0.00 0.00 0.00 100
20260508145107 64 300 4.0 11.0 0.00 0.00 0.00 100
20260508144607 65 291 4.0 11.0 0.00 0.00 0.00 100
20260508144107 65 303 4.0 8.0 0.00 0.00 0.00 100
20260508143607 65 310 7.0 10.0 0.00 0.00 0.00 100
20260508143107 63 303 9.0 9.0 0.00 0.00 0.00 100
20260508142607 63 307 4.0 12.0 0.00 0.00 0.00 100
20260508142107 63 312 6.0 9.0 0.00 0.00 0.00 100
20260508141607 64 310 5.0 9.0 0.00 0.00 0.00 100
20260508141107 62 284 6.0 11.0 0.00 0.00 0.00 100
20260508140607 62 293 7.0 12.0 0.00 0.00 0.00 100
20260508140107 63 292 5.0 13.0 0.00 0.00 0.00 100
20260508135607 61 305 8.0 11.0 0.00 0.00 0.00 100
20260508135107 62 254 3.0 9.0 0.00 0.00 0.00 100
20260508134607 62 292 4.0 10.0 0.00 0.00 0.00 100
20260508134107 61 302 5.0 12.0 0.00 0.00 0.00 100
20260508133607 61 302 6.0 12.0 0.00 0.00 0.00 100
20260508133107 61 305 7.0 12.0 0.00 0.00 0.00 100
20260508132607 60 316 6.0 8.0 0.00 0.00 0.00 100
20260508132107 59 28 3.0 10.0 0.00 0.00 0.00 100
20260508131607 60 310 3.0 12.0 0.00 0.00 0.00 100
20260508131107 59 336 6.0 10.0 0.00 0.00 0.00 100
20260508130607 59 262 4.0 9.0 0.00 0.00 0.00 100
20260508130107 60 306 1.0 7.0 0.00 0.00 0.00 100
20260508125607 59 289 2.0 7.0 0.00 0.00 0.00 100
20260508125107 58 299 3.0 8.0 0.00 0.00 0.00 100
20260508124607 57 293 3.0 10.0 0.00 0.00 0.00 100
20260508124107 57 292 6.0 7.0 0.00 0.00 0.00 100
20260508123607 57 305 2.0 7.0 0.00 0.00 0.00 100
20260508123107 56 305 5.0 7.0 0.00 0.00 0.00 100
20260508122607 55 309 4.0 8.0 0.00 0.00 0.00 100
20260508122112 55 298 7.0 9.0 0.00 0.00 0.00 100
20260508122107 55 298 7.0 9.0 0.00 0.00 0.00 100
20260508121607 55 291 5.0 6.0 0.00 0.00 0.00 100
20260508121107 54 285 4.0 7.0 0.00 0.00 0.00 100
20260508120607 54 299 4.0 7.0 0.00 0.00 0.00 100
20260508120107 53 279 6.0 7.0 0.00 0.00 0.00 100
20260508115607 53 305 3.0 6.0 0.00 0.00 0.00 100
20260508115107 53 251 1.0 4.0 0.00 0.00 0.00 100
20260508114607 52 316 1.0 5.0 0.00 0.00 0.00 100
20260508114107 51 291 2.0 4.0 0.00 0.00 0.00 100
20260508113607 51 279 0.0 2.0 0.00 0.00 0.00 100
20260508113107 49 291 2.0 3.0 0.00 0.00 0.00 100
20260508112607 48 288 0.0 3.0 0.00 0.00 0.00 100
20260508112107 48 288 2.0 3.0 0.00 0.00 0.00 100
20260508111607 45 289 1.0 3.0 0.00 0.00 0.00 100
20260508111107 44 258 1.0 3.0 0.00 0.00 0.00 100
20260508110607 43 285 2.0 2.0 0.00 0.00 0.00 100
20260508110107 42 275 0.0 1.0 0.00 0.00 0.00 100
20260508105607 42 239 0.0 0.0 0.00 0.00 0.00 100
20260508105107 42 278 0.0 0.0 0.00 0.00 0.00 100
20260508104607 42 243 0.0 0.0 0.00 0.00 0.00 100
20260508104107 42 243 0.0 0.0 0.00 0.00 0.00 100
20260508103607 43 243 0.0 0.0 0.00 0.00 0.00 100
20260508103107 43 241 0.0 0.0 0.00 0.00 0.00 100
20260508102607 43 272 0.0 2.0 0.00 0.00 0.00 100
20260508102107 44 262 0.0 1.0 0.00 0.00 0.00 100
20260508101607 45 265 0.0 2.0 0.00 0.00 0.00 100
20260508101107 46 279 1.0 4.0 0.00 0.00 0.00 100
20260508100607 47 237 0.0 3.0 0.00 0.00 0.00 100
20260508100107 47 285 3.0 6.0 0.00 0.00 0.00 100
20260508095607 48 293 5.0 6.0 0.00 0.00 0.00 100
20260508095107 47 291 4.0 6.0 0.00 0.00 0.00 100
20260508094607 47 289 4.0 6.0 0.00 0.00 0.00 100
20260508094107 47 293 4.0 5.0 0.00 0.00 0.00 100
20260508093607 47 285 3.0 6.0 0.00 0.00 0.00 100
20260508093107 47 267 3.0 5.0 0.00 0.00 0.00 100
20260508092607 47 289 4.0 6.0 0.00 0.00 0.00 100
20260508092107 47 271 4.0 5.0 0.00 0.00 0.00 100
20260508091607 47 289 3.0 5.0 0.00 0.00 0.00 100
20260508091107 47 295 3.0 6.0 0.00 0.00 0.00 100
20260508090607 48 285 5.0 6.0 0.00 0.00 0.00 100
20260508090107 47 299 4.0 6.0 0.00 0.00 0.00 100
20260508085607 47 274 4.0 8.0 0.00 0.00 0.00 100
20260508085107 47 282 4.0 8.0 0.00 0.00 0.00 100
20260508084607 47 293 4.0 6.0 0.00 0.00 0.00 100
20260508084107 47 279 3.0 6.0 0.00 0.00 0.00 100
20260508083607 47 288 3.0 6.0 0.00 0.00 0.00 100
20260508083107 46 292 3.0 4.0 0.00 0.00 0.00 100
20260508082607 46 299 3.0 4.0 0.00 0.00 0.00 100
20260508082107 46 289 1.0 4.0 0.00 0.00 0.00 100
20260508081607 46 288 4.0 5.0 0.00 0.00 0.00 100
20260508081107 46 288 2.0 4.0 0.00 0.00 0.00 100
20260508080607 46 291 2.0 4.0 0.00 0.00 0.00 100
20260508080108 46 282 3.0 5.0 0.00 0.00 0.00 100
20260508075607 46 289 3.0 5.0 0.00 0.00 0.00 100
20260508075107 46 296 3.0 5.0 0.00 0.00 0.00 100
20260508074607 46 293 3.0 4.0 0.00 0.00 0.00 100
20260508074107 46 295 2.0 5.0 0.00 0.00 0.00 100
20260508073607 47 292 2.0 5.0 0.00 0.00 0.00 100
20260508073107 47 285 2.0 5.0 0.00 0.00 0.00 100
20260508072607 47 288 4.0 6.0 0.00 0.00 0.00 100
20260508072107 46 284 1.0 6.0 0.00 0.00 0.00 100
20260508071607 45 286 4.0 5.0 0.00 0.00 0.00 100
20260508071107 45 295 2.0 3.0 0.00 0.00 0.00 100
20260508070607 44 295 2.0 2.0 0.00 0.00 0.00 100
20260508070107 44 246 0.0 0.0 0.00 0.00 0.00 100
20260508065607 44 246 0.0 1.0 0.00 0.00 0.00 100
20260508065107 44 286 0.0 2.0 0.00 0.00 0.00 100
20260508064607 44 285 0.0 2.0 0.00 0.00 0.00 100
20260508064107 43 268 1.0 1.0 0.00 0.00 0.00 100
20260508063607 43 229 0.0 0.0 0.00 0.00 0.00 100
20260508063107 42 229 0.0 0.0 0.00 0.00 0.00 100
20260508062607 42 229 0.0 0.0 0.00 0.00 0.00 100
20260508062107 43 229 0.0 0.0 0.00 0.00 0.00 100
20260508061607 44 229 0.0 0.0 0.00 0.00 0.00 100
20260508061108 44 229 0.0 0.0 0.00 0.00 0.00 100
20260508060607 44 229 0.0 0.0 0.00 0.00 0.00 100
20260508060107 45 229 0.0 0.0 0.00 0.00 0.00 100
20260508055607 46 229 0.0 2.0 0.00 0.00 0.00 100
20260508055107 45 223 1.0 3.0 0.00 0.00 0.00 100
20260508054607 44 265 1.0 1.0 0.00 0.00 0.00 100
20260508054107 44 275 0.0 0.0 0.00 0.00 0.00 100
20260508053607 45 275 0.0 0.0 0.00 0.00 0.00 100
20260508053107 46 275 0.0 1.0 0.00 0.00 0.00 100
20260508052607 46 248 0.0 2.0 0.00 0.00 0.00 100
20260508052107 46 254 0.0 0.0 0.00 0.00 0.00 100
20260508051607 46 241 0.0 1.0 0.00 0.00 0.00 100
20260508051107 47 274 0.0 2.0 0.00 0.00 0.00 100
20260508050607 47 265 0.0 2.0 0.00 0.00 0.00 100
20260508050107 47 275 2.0 2.0 0.00 0.00 0.00 100
20260508045607 46 286 2.0 2.0 0.00 0.00 0.00 100
20260508045107 46 278 1.0 1.0 0.00 0.00 0.00 100
20260508044607 46 253 0.0 0.0 0.00 0.00 0.00 100
20260508044107 46 253 0.0 0.0 0.00 0.00 0.00 100
20260508043607 45 253 0.0 0.0 0.00 0.00 0.00 100
20260508043107 47 253 0.0 0.0 0.00 0.00 0.00 100
20260508042607 47 272 0.0 0.0 0.00 0.00 0.00 100
20260508042107 46 279 0.0 1.0 0.00 0.00 0.00 100
20260508041607 45 274 1.0 1.0 0.00 0.00 0.00 100
20260508041107 46 268 0.0 0.0 0.00 0.00 0.00 100
20260508040607 46 268 0.0 1.0 0.00 0.00 0.00 100
20260508040107 47 274 0.0 3.0 0.00 0.00 0.00 100
20260508035607 47 268 1.0 2.0 0.00 0.00 0.00 100
20260508035107 47 293 0.0 2.0 0.00 0.00 0.00 100
20260508034607 45 277 0.0 2.0 0.00 0.00 0.00 100
20260508034107 45 255 0.0 0.0 0.00 0.00 0.00 100
20260508033607 45 255 0.0 0.0 0.00 0.00 0.00 100
20260508033107 46 255 0.0 0.0 0.00 0.00 0.00 100
20260508032607 47 255 0.0 0.0 0.00 0.00 0.00 100
20260508032107 47 255 0.0 0.0 0.00 0.00 0.00 100
20260508031607 47 255 0.0 0.0 0.00 0.00 0.00 100
20260508031107 47 255 0.0 0.0 0.00 0.00 0.00 100
20260508030607 48 7 0.0 0.0 0.00 0.00 0.00 100
20260508030108 48 7 0.0 0.0 0.00 0.00 0.00 100
20260508025607 48 7 0.0 0.0 0.00 0.00 0.00 100
20260508025107 47 7 0.0 0.0 0.00 0.00 0.00 100
20260508024607 48 7 0.0 0.0 0.00 0.00 0.00 100
20260508024107 49 7 0.0 0.0 0.00 0.00 0.00 100
20260508023608 48 7 0.0 0.0 0.00 0.00 0.00 100
20260508023108 49 7 0.0 0.0 0.00 0.00 0.00 100
20260508022608 49 7 0.0 0.0 0.00 0.00 0.00 100
20260508022108 49 7 0.0 0.0 0.00 0.00 0.00 100
20260508021608 49 7 0.0 0.0 0.00 0.00 0.00 100
20260508021108 50 7 0.0 0.0 0.00 0.00 0.00 100
20260508020608 49 7 0.0 0.0 0.00 0.00 0.00 100
20260508020108 50 7 0.0 0.0 0.00 0.00 0.00 100
20260508015608 50 7 0.0 0.0 0.00 0.00 0.00 100
20260508015108 50 7 0.0 0.0 0.00 0.00 0.00 100
20260508014608 52 7 0.0 0.0 0.00 0.00 0.00 100
20260508014108 54 7 0.0 0.0 0.00 0.00 0.00 100
20260508013608 54 7 0.0 1.0 0.00 0.00 0.00 100
20260508013108 54 330 0.0 3.0 0.00 0.00 0.00 100
20260508012608 53 316 0.0 2.0 0.00 0.00 0.00 100
20260508012108 53 14 2.0 3.0 0.00 0.00 0.00 100
20260508011608 54 309 0.0 2.0 0.00 0.00 0.00 100
20260508011108 54 354 0.0 1.0 0.00 0.00 0.00 100
20260508010608 54 23 0.0 1.0 0.00 0.00 0.00 100
20260508010108 55 327 0.0 1.0 0.00 0.00 0.00 100
20260508005608 55 322 0.0 2.0 0.00 0.00 0.00 100
20260508005108 55 320 0.0 2.0 0.00 0.00 0.00 100
20260508004608 55 327 0.0 1.0 0.00 0.00 0.00 100
20260508004108 55 350 0.0 1.0 0.00 0.00 0.00 100
20260508003608 57 341 0.0 4.0 0.00 0.00 0.00 100
20260508003108 56 1 0.0 4.0 0.00 0.00 0.00 100
20260508002608 57 320 3.0 5.0 0.00 0.00 0.00 100
20260508002108 58 320 2.0 5.0 0.00 0.00 0.00 100
20260508001608 59 340 3.0 8.0 0.00 0.00 0.00 100
20260508001108 60 330 2.0 6.0 0.00 0.00 0.00 100
20260508000608 61 316 3.0 6.0 0.00 0.00 0.00 100
20260508000108 60 352 3.0 5.0 0.00 0.00 0.00 100
20260507235608 61 0 2.0 7.0 0.00 0.00 0.00 100
20260507235108 61 15 0.0 7.0 0.00 0.00 0.00 100
20260507234608 62 347 5.0 10.0 0.00 0.00 0.00 100
20260507234108 62 355 8.0 9.0 0.00 0.00 0.00 100
20260507233608 62 357 4.0 9.0 0.00 0.00 0.00 100
20260507233108 62 355 6.0 10.0 0.00 0.00 0.00 100
20260507232612 62 352 1.0 8.0 0.00 0.00 0.00 100
20260507232108 63 358 4.0 12.0 0.00 0.00 0.00 100
20260507231608 63 358 8.0 9.0 0.00 0.00 0.00 100
20260507231108 63 19 6.0 10.0 0.00 0.00 0.00 100
20260507230608 63 319 7.0 7.0 0.00 0.00 0.00 100
20260507230108 65 313 3.0 9.0 0.00 0.00 0.00 100
20260507225608 65 351 3.0 8.0 0.00 0.00 0.00 100